Regional Weather Roundup
Issued by NWS

Home | Current Version | Previous Version | Graphics & Text | Print | Product List | Glossary On
Versions: 1 2 3 4 5 6 7 8 9 10 11 12 13 14 15 16 17 18 19 20 21 22 23 24 25 26 27 28 29 30 31 32 33 34 35 36 37 38 39 40 41 42 43 44 45 46 47 48 49 50
000
ASUS43 KIND 230509
RWRIN

WEATHER ROUNDUP FOR INDIANA
NATIONAL WEATHER SERVICE INDIANAPOLIS IN
100 AM EDT SAT AUG 23 2014

NOTE: "FAIR" INDICATES FEW OR NO CLOUDS BELOW 12,000 FEET WITH NO
SIGNIFICANT WEATHER AND/OR OBSTRUCTIONS TO VISIBILITY.

* - STATION DOES NOT REPORT WEATHER SUCH AS PRECIPITATION OR FOG.

+ - STATION NOT QUALITY CONTROLLED BY THE NATIONAL WEATHER SERVICE.
    USE DATA WITH CAUTION...ESPECIALLY DEWPOINT AND RELATIVE
    HUMIDITY OBSERVATIONS.

INZ001>003-010>013-019-020-230600-
NORTHWEST INDIANA

CITY           SKY/WX    TMP DP  RH WIND       PRES   REMARKS
GARY /AIRPORT/ CLEAR     74  72  92 CALM      29.98F
KNOX *+          N/A     70  68  92 CALM      29.99F VSB 1/4
LA PORTE +     CLEAR     71  71 100 CALM      30.01S FOG
MICHIGAN CITY+ FOG       72  72 100 CALM      29.99F VSB 3/4
MONTICELLO +   CLEAR     71  70  99 CALM      29.99F
RENSSELAER +   CLEAR     70  70 100 CALM      29.99F FOG
VALPARAISO     CLEAR     72  70  93 CALM      30.00F

$$

LMZ046-743>745-230600-
SOUTHERN LAKE MICHIGAN

STATION/POSITION TIME  TEMP WIND        PRES
                       AIR  DIR/SP/G
                 (UTC) (F)  (DEG/KT/KT) (MB)
MICHIGAN CITY    0500   76  160/  1/  2   N/A

$$

INZ004-005-014>016-021>024-230600-
NORTH CENTRAL INDIANA

CITY           SKY/WX    TMP DP  RH WIND       PRES   REMARKS
GOSHEN         PTCLDY    76  73  91 CALM      30.00S FOG
LOGANSPORT +   CLEAR     72  70  94 W3        30.01F
PERU/GRISSOM   PTCLDY    74  74 100 NW1       30.01S
ROCHESTER +    CLEAR     73  73 100 CALM      30.01F
SOUTH BEND     PTCLDY    75  73  93 N3        30.00F FOG
WARSAW +       PTCLDY    72  72 100 W3        30.01S

$$

INZ006>009-017-018-025>027-230600-
NORTHEAST INDIANA

CITY           SKY/WX    TMP DP  RH WIND       PRES   REMARKS
ANGOLA *+      CLOUDY    72  63  73 CALM      30.02S
AUBURN +       PTCLDY    73  70  88 CALM      30.03S FOG
FORT WAYNE     RAIN      73  71  93 CALM      30.02S
HUNTINGTON +   CLOUDY    74  73  98 CALM      30.01S

$$

INZ028-029-035-036-043>045-051>053-230600-
WEST CENTRAL INDIANA

CITY           SKY/WX    TMP DP  RH WIND       PRES   REMARKS
GREENCASTLE +  CLEAR     72  72 100 CALM      30.01F FOG
LAFAYETTE      CLEAR     71  71 100 CALM      29.99F FOG
TERRE HAUTE    FOG       73  71  93 CALM      29.99F VSB 3/4

$$

INZ030>032-037>040-046>048-054>057-064-065-230600-
CENTRAL INDIANA

CITY           SKY/WX    TMP DP  RH WIND       PRES   REMARKS
CP ATTERBURY + FOG       72  70  94 CALM      30.01S VSB 1/2
FRANKFORT +    CLEAR    N/A N/A N/A CALM      30.02F HAZE
INDIANAPOLIS   CLEAR     73  70  90 CALM      30.00S
-EAGLE CREEK   CLEAR     73  70  90 CALM      30.00F
KOKOMO *+      CLEAR     73  70  88 CALM      30.01S
MARION +       CLEAR     70  69  98 CALM      30.01F FOG
MT COMFORT *+  CLEAR     70 N/A N/A CALM      30.02S
SHELBYVILLE    CLEAR     73  69  87 NE3       30.00S
ZIONSVILLE +   FOG       71  68  90 CALM      30.02F VSB 1

$$

INZ033-034-041-042-049-050-058-059-230600-
EAST CENTRAL INDIANA

CITY           SKY/WX    TMP DP  RH WIND       PRES   REMARKS
MUNCIE         CLEAR     72  70  93 CALM      30.01F

$$

INZ060-061-067>069-081>083-085>088-230600-
SOUTHWEST INDIANA

CITY           SKY/WX    TMP DP  RH WIND       PRES   REMARKS
EVANSVILLE     CLOUDY    80  76  87 SE6       30.00R
WASHINGTON +   CLOUDY    74  74 100 S7        30.01R

$$

INZ062-063-066-070>080-084-089>092-230600-
SOUTH CENTRAL AND SOUTHEAST INDIANA

CITY           SKY/WX    TMP DP  RH WIND       PRES   REMARKS
BLOOMINGTON    PTCLDY    75  72  90 CALM      30.01F

$$



USA.gov is the U.S. government's official web portal to all federal, state and local government web resources and services.